Weather History for Pittsfield, IL

Change the Weather History Date:

Tuesday, January 4, 2011

  Actual Average (KUIN) Record (KUIN)
Temperature  
Mean Temperature 28 °F 27 °F  
Max Temperature 33 °F 34 °F 65 °F (1997)
Min Temperature 24 °F 19 °F -11 °F (1999)
Degree Days  
Heating Degree Days 36 38  
Month to date heating degree days 152  
Since 1 July heating degree days 2343  
Cooling Degree Days 0 0  
Month to date cooling degree days 0  
Year to date cooling degree days 0  
Moisture  
Dew Point 19 °F    
Average Humidity 67    
Maximum Humidity 93    
Minimum Humidity 48    
Precipitation  
Precipitation 0.00 in 0.05 in 0.97 in (1922)
Month to date precipitation 0.22  
Year to date precipitation 0.22  
Sea Level Pressure  
Sea Level Pressure 30.10 in    
Wind  
Wind Speed 6 mph (West)    
Max Wind Speed 13 mph    
Max Gust Speed 20 mph    
Visibility 10 miles    
Events      
T = Trace of Precipitation, MM = Missing Value Source: NWS Daily Summary

Daily Weather History Graph

Daily Weather History Graph

Search for Another Location

Airport:

Trip Planner

Search our weather history database for the weather conditions in past years. The results will help you decide how hot, cold, wet, or windy it might be!

Date:

Astronomy

Jan. 04, 2011 Rise Set
Actual Time 7:24 AM CST 4:52 PM CST
Civil Twilight 6:54 AM CST 5:22 PM CST
Nautical Twilight 6:20 AM CST 5:55 PM CST
Astronomical Twilight 5:47 AM CST 6:28 PM CST
Moon 7:32 AM CST (1/4) 5:25 PM CST (1/4)
Length of Visible Light 10h 28m
Length of Day
9h 27m
New Moon, 0% of the Moon is Illuminated
Jan 4
New Moon
Jan 12
First Quarter
Jan 19
Full
Jan 26
Last Quarter
Feb 2
New

Hourly Weather History & Observations

Time (CST) Temp. Windchill Dew Point Humidity Pressure Visibility Wind Dir Wind Speed Gust Speed Precip Events Conditions
12:07 AM 32.0 °F 28.7 °F 24.8 °F 75% 30.02 in 10.0 mi WSW 3.5 mph - N/A   Clear
12:27 AM 32.0 °F 28.7 °F 24.8 °F 75% 30.02 in 10.0 mi West 3.5 mph - N/A   Clear
12:47 AM 30.2 °F 25.4 °F 24.8 °F 80% 30.02 in 10.0 mi West 4.6 mph - N/A   Clear
1:07 AM 30.2 °F 26.7 °F 24.8 °F 80% 30.02 in 10.0 mi West 3.5 mph - N/A   Clear
1:27 AM 30.2 °F 24.3 °F 23.0 °F 75% 30.03 in 10.0 mi West 5.8 mph - N/A   Clear
1:47 AM 30.2 °F 24.3 °F 24.8 °F 80% 30.03 in 10.0 mi West 5.8 mph - N/A   Clear
2:08 AM 30.2 °F 25.4 °F 24.8 °F 80% 30.03 in 10.0 mi West 4.6 mph - N/A   Clear
2:27 AM 30.2 °F 24.3 °F 24.8 °F 80% 30.03 in 10.0 mi WNW 5.8 mph - N/A   Clear
2:47 AM 30.2 °F 25.4 °F 23.0 °F 75% 30.04 in 10.0 mi West 4.6 mph - N/A   Clear
3:07 AM 30.2 °F 25.4 °F 23.0 °F 75% 30.04 in 10.0 mi West 4.6 mph - N/A   Clear
3:27 AM 30.2 °F 24.3 °F 24.8 °F 80% 30.04 in 10.0 mi WNW 5.8 mph - N/A   Clear
3:47 AM 30.2 °F 24.3 °F 24.8 °F 80% 30.05 in 10.0 mi WNW 5.8 mph - N/A   Clear
4:07 AM 30.2 °F 24.3 °F 24.8 °F 80% 30.05 in 10.0 mi WNW 5.8 mph - N/A   Clear
4:27 AM 30.2 °F 24.3 °F 24.8 °F 80% 30.05 in 10.0 mi WNW 5.8 mph - N/A   Clear
4:47 AM 30.2 °F 23.4 °F 24.8 °F 80% 30.06 in 10.0 mi WNW 6.9 mph - N/A   Clear
5:07 AM 28.4 °F 22.2 °F 24.8 °F 86% 30.06 in 10.0 mi WNW 5.8 mph - N/A   Clear
5:27 AM 28.4 °F 23.3 °F 24.8 °F 86% 30.07 in 10.0 mi WNW 4.6 mph - N/A   Clear
5:47 AM 26.6 °F 21.2 °F 24.8 °F 93% 30.08 in 10.0 mi West 4.6 mph - N/A   Clear
6:07 AM 28.4 °F 21.2 °F 23.0 °F 80% 30.08 in 10.0 mi WNW 6.9 mph - N/A   Clear
6:27 AM 26.6 °F 18.2 °F 21.2 °F 80% 30.10 in 10.0 mi WNW 8.1 mph - N/A   Clear
6:47 AM 26.6 °F 18.2 °F 19.4 °F 74% 30.11 in 10.0 mi WNW 8.1 mph - N/A   Clear
7:07 AM 26.6 °F 18.2 °F 17.6 °F 69% 30.11 in 10.0 mi WNW 8.1 mph - N/A   Clear
7:27 AM 24.8 °F 16.9 °F 17.6 °F 74% 30.12 in 10.0 mi WNW 6.9 mph - N/A   Clear
7:47 AM 24.8 °F 17.9 °F 17.6 °F 74% 30.13 in 10.0 mi West 5.8 mph - N/A   Clear
8:07 AM 26.6 °F 16.8 °F 15.8 °F 64% 30.13 in 10.0 mi WNW 10.4 mph 16.1 mph N/A   Clear
8:27 AM 26.6 °F 16.8 °F 17.6 °F 69% 30.14 in 10.0 mi WNW 10.4 mph - N/A   Clear
8:47 AM 26.6 °F 15.7 °F 17.6 °F 69% 30.14 in 10.0 mi NW 12.7 mph 19.6 mph N/A   Clear
9:07 AM 26.6 °F 15.7 °F 17.6 °F 69% 30.14 in 10.0 mi NW 12.7 mph - N/A   Clear
9:27 AM 26.6 °F 18.2 °F 17.6 °F 69% 30.15 in 10.0 mi NW 8.1 mph - N/A   Clear
9:47 AM 26.6 °F 18.2 °F 15.8 °F 64% 30.15 in 10.0 mi NW 8.1 mph - N/A   Clear
10:07 AM 26.6 °F 16.8 °F 15.8 °F 64% 30.16 in 10.0 mi West 10.4 mph - N/A   Clear
10:27 AM 28.4 °F 20.4 °F 17.6 °F 64% 30.16 in 10.0 mi West 8.1 mph - N/A   Clear
10:47 AM 28.4 °F 19.1 °F 14.0 °F 55% 30.16 in 10.0 mi WNW 10.4 mph 17.3 mph N/A   Clear
11:07 AM 28.4 °F 21.2 °F 15.8 °F 59% 30.16 in 10.0 mi West 6.9 mph - N/A   Clear
11:27 AM 28.4 °F 20.4 °F 17.6 °F 64% 30.15 in 10.0 mi West 8.1 mph - N/A   Clear
11:47 AM 30.2 °F 20.8 °F 19.4 °F 64% 30.14 in 10.0 mi West 11.5 mph - N/A   Clear
12:07 PM 30.2 °F 21.3 °F 15.8 °F 55% 30.14 in 10.0 mi West 10.4 mph - N/A   Clear
12:27 PM 30.2 °F 20.8 °F 17.6 °F 60% 30.13 in 10.0 mi West 11.5 mph - N/A   Clear
12:47 PM 30.2 °F 21.3 °F 15.8 °F 55% 30.13 in 10.0 mi West 10.4 mph - N/A   Clear
1:07 PM 30.2 °F 21.3 °F 15.8 °F 55% 30.12 in 10.0 mi West 10.4 mph - N/A   Clear
1:27 PM 32.0 °F 24.8 °F 15.8 °F 51% 30.11 in 10.0 mi WNW 8.1 mph - N/A   Clear
1:47 PM 32.0 °F 23.6 °F 15.8 °F 51% 30.11 in 10.0 mi West 10.4 mph - N/A   Clear
2:08 PM 33.8 °F 27.0 °F 15.8 °F 48% 30.11 in 10.0 mi West 8.1 mph - N/A   Clear
2:27 PM 33.8 °F 25.8 °F 15.8 °F 48% 30.11 in 10.0 mi West 10.4 mph - N/A   Clear
2:47 PM 33.8 °F 25.8 °F 15.8 °F 48% 30.11 in 10.0 mi West 10.4 mph - N/A   Clear
3:07 PM 33.8 °F 27.7 °F 15.8 °F 48% 30.11 in 10.0 mi West 6.9 mph - N/A   Clear
3:28 PM 33.8 °F 26.4 °F 15.8 °F 48% 30.11 in 10.0 mi West 9.2 mph - N/A   Clear
3:47 PM 33.8 °F 26.4 °F 15.8 °F 48% 30.11 in 10.0 mi West 9.2 mph - N/A   Clear
4:07 PM 33.8 °F 26.4 °F 15.8 °F 48% 30.11 in 10.0 mi WSW 9.2 mph - N/A   Clear
4:27 PM 32.0 °F 24.8 °F 15.8 °F 51% 30.12 in 10.0 mi West 8.1 mph - N/A   Clear
4:47 PM 32.0 °F 26.4 °F 15.8 °F 51% 30.12 in 10.0 mi West 5.8 mph - N/A   Clear
5:07 PM 30.2 °F 24.3 °F 17.6 °F 60% 30.12 in 10.0 mi West 5.8 mph - N/A   Clear
5:27 PM 30.2 °F 25.4 °F 17.6 °F 60% 30.11 in 10.0 mi WSW 4.6 mph - N/A   Clear
5:47 PM 30.2 °F 25.4 °F 17.6 °F 60% 30.11 in 10.0 mi West 4.6 mph - N/A   Clear
6:07 PM 28.4 °F 24.6 °F 17.6 °F 64% 30.12 in 10.0 mi WSW 3.5 mph - N/A   Clear
6:27 PM 28.4 °F 23.3 °F 15.8 °F 59% 30.12 in 10.0 mi West 4.6 mph - N/A   Clear
6:47 PM 28.4 °F 24.6 °F 15.8 °F 59% 30.11 in 10.0 mi WSW 3.5 mph - N/A   Clear
7:07 PM 28.4 °F - 15.8 °F 59% 30.10 in 10.0 mi Calm Calm - N/A   Clear
7:27 PM 26.6 °F - 19.4 °F 74% 30.10 in 10.0 mi Calm Calm - N/A   Clear
7:48 PM 26.6 °F - 17.6 °F 69% 30.09 in 10.0 mi Calm Calm - N/A   Clear
8:07 PM 26.6 °F 22.6 °F 21.2 °F 80% 30.09 in 10.0 mi SSE 3.5 mph - N/A   Clear
8:27 PM 26.6 °F 22.6 °F 19.4 °F 74% 30.08 in 10.0 mi SE 3.5 mph - N/A   Clear
8:47 PM 26.6 °F - 21.2 °F 80% 30.09 in 10.0 mi Calm Calm - N/A   Clear
9:07 PM 26.6 °F 22.6 °F 21.2 °F 80% 30.09 in 10.0 mi SSW 3.5 mph - N/A   Clear
9:28 PM 26.6 °F - 19.4 °F 74% 30.09 in 10.0 mi Calm Calm - N/A   Clear
9:47 PM 24.8 °F - 21.2 °F 86% 30.09 in 10.0 mi Calm Calm - N/A   Clear
10:07 PM 24.8 °F - 21.2 °F 86% 30.09 in 10.0 mi Calm Calm - N/A   Clear
10:27 PM 24.8 °F - 21.2 °F 86% 30.08 in 10.0 mi Calm Calm - N/A   Clear
10:47 PM 24.8 °F - 19.4 °F 80% 30.08 in 10.0 mi Calm Calm - N/A   Clear
11:07 PM 23.0 °F - 19.4 °F 86% 30.08 in 10.0 mi Calm Calm - N/A   Clear
11:27 PM 24.8 °F - 19.4 °F 80% 30.08 in 10.0 mi Calm Calm - N/A   Clear
11:47 PM 24.8 °F - 21.2 °F 86% 30.08 in 10.0 mi Calm Calm - N/A   Clear